Location: Kunchanapalle
(16.4623°N, 80.6176°E)
Time: 17:55:43
(UTC+00:00)

Cosmos 1934 Rocket - Pass Details

Date: 13 August 2020
Orbit: 937 x 1000 km, 83.0° (Epoch: 20 September)

Event Time Altitude Azimuth Distance (km) Brightness Sun altitude
Exits shadow 14:23:54 22° 152° (SSE) 2,026 5.2 -19.1°
Maximum altitude 14:27:42 45° 91° (E) 1,324 4.3 -20.0°
Drops below altitude 10° 14:33:42 10° 20° (NNE) 2,765 6.4 -21.3°
Sets 14:36:20 0° 15° (NNE) 3,715 7.2 -21.9°
